Presure
231 240 124 97 177 136 190 158 108 103 159 137 108 111 123 118 131 145 119 121 120 124 142 124 118 122 122 120 124 100 102 108 110 111 108 114 119 122 146 109 148 114 89 135 76 158 79 78 86
100 219 196 115 152 180 191 138 185 120 117 104 116 116 117 111 132 102 117 119 108 123 109 118 125 121 118 118 126 102 124 98 116 120 104 114 132 112 123 142 111 108 121 104 109 79 81 81 84
135 222 226 192 92 92 97 147 112 148 136 110 106 111 109 112 128 111 116 130 127 152 111 138 118 122 108 119 124 109 125 117 114 107 105 108 139 141 117 144 128 149 110 103 120 77 111 137 102
81 84 91 84 92 92 223 99 102 106 191 176 91 98 108 112 114 124 105 107 114 162 121 116 124 121 128 107 141 109 136 104 110 137 122 133 121 137 123 112 117 162 117 126 78 128 102 80 103
81 85 83 166 86 90 157 135 99 91 111 124 198 115 105 108 109 112 124 118 125 103 115 108 112 112 114 105 111 105 108 113 117 119 125 117 115 135 133 130 116 114 117 155 146 163 137 147 117
82 81 83 182 138 142 114 139 92 146 92 199 142 109 118 121 112 104 113 110 115 120 110 115 183 108 116 156 122 110 135 105 119 143 106 143 149 142 123 111 114 116 143 121 144 152 158 144 146
90 177 150 179 82 90 81 85 81 127 197 82 219 124 147 103 109 117 100 109 166 116 120 122 160 159 141 153 169 117 164 148 118 123 141 105 135 104 116 149 109 144 133 149 138 150 155 167 156
146 133 184 150 88 86 162 73 64 200 88 87 236 87 193 113 102 119 187 102 93 99 107 117 123 130 153 146 122 110 169 140 151 109 160 157 113 120 119 114 158 163 141 164 149 140 137 154 140
195 182 184 160 167 72 100 78 78 128 82 127 77 120 88 231 244 209 208 105 163 135 104 106 128 117 110 155 169 140 126 157 141 139 139 127 132 142 145 152 161 161 176 156 160 143 143 142 152
172 178 162 166 119 157 214 75 187 193 164 87 123 127 84 87 94 98 97 142 148 103 106 112 108 102 102 108 101 103 166 97 171 156 143 120 140 152 154 160 152 144 144 149 152 141 137 132 133
172 167 181 182 179 194 196 72 99 200 92 423 146 414 149 91 184 95 122 97 188 200 102 102 110 110 120 107 105 103 91 107 107 108 105 111 123 149 117 115 145 151 140 141 118 126 122 115 123
163 169 171 123 177 193 219 191 211 84 205 85 105 84 82 224 112 155 82 108 124 103 174 109 107 109 102 98 104 107 109 109 109 141 137 115 126 109 109 119 113 114 114 121 118 105 103 128 129
148 186 165 191 153 167 195 236 197 145 137 176 75 77 73 145 89 78 87 90 90 99 102 150 159 105 108 111 103 105 107 108 111 108 111 107 112 109 108 110 117 124 121 115 107 136 110 116 126
145 163 170 177 170 185 173 130 238 212 227 165 257 237 219 84 150 88 108 89 81 94 88 95 220 100 91 103 107 109 105 104 105 108 121 109 108 110 109 118 115 117 126 132 164 190 178 117 172
173 130 132 163 162 149 202 222 206 200 152 231 254 242 213 142 199 231 78 78 80 78 79 83 90 101 107 107 182 111 188 114 173 104 107 109 108 108 111 106 109 132 104 109 110 107 138 99 111
176 167 145 140 154 197 141 204 205 180 208 279 217 236 236 219 195 190 195 237 82 182 237 114 93 101 104 108 110 97 115 108 118 112 114 111 105 104 108 110 109 108 105 105 107 108 101 185 104
114 168 179 167 153 135 185 188 221 132 151 224 249 220 202 201 215 177 187 193 214 200 187 190 195 204 170 97 119 117 92 94 106 103 110 104 108 108 107 108 105 107 108 107 101 110 108 97 131
142 188 189 193 199 153 197 196 214 201 203 203 220 286 228 200 196 210 167 192 175 205 184 197 206 220 228 89 88 90 90 84 120 105 101 103 98 101 103 107 105 111 109 107 108 109 106 110 183
192 183 184 184 188 154 154 187 155 208 187 193 199 233 295 247 216 209 213 200 164 164 190 199 213 176 241 88 89 92 86 88 93 95 100 101 102 102 144 97 99 102 104 195 211 108 108 108 105
203 204 204 197 192 150 169 194 197 206 196 189 196 196 230 304 279 240 214 239 159 194 205 172 208 179 214 216 203 156 91 119 93 95 95 101 101 90 123 93 148 98 190 101 102 113 146 152 101
212 214 211 202 202 176 188 199 135 209 201 187 187 222 200 231 277 269 246 223 197 167 179 198 195 219 214 190 213 208 192 92 89 109 150 94 93 148 197 94 97 134 134 95 163 138 136 95 114
199 209 224 222 211 202 199 198 203 205 208 209 186 208 199 220 230 263 254 232 230 227 163 220 219 192 179 231 216 206 236 167 207 185 186 173 181 197 90 93 96 92 101 98 81 93 92 92 88
208 205 217 221 198 201 205 205 201 205 204 198 191 202 187 213 218 220 212 261 227 227 177 219 220 199 210 180 187 208 180 171 210 187 186 206 210 207 189 192 194 120 95 102 131 103 91 104 96
208 193 273 217 217 218 189 179 207 209 206 204 207 214 215 197 218 213 220 211 265 234 227 202 209 206 182 189 191 177 187 176 185 180 172 188 203 207 193 200 195 186 189 192 189 186 191 188 189
238 248 243 275 250 221 185 185 190 199 206 204 199 204 193 190 195 212 188 216 217 305 229 228 228 214 178 227 172 183 184 181 195 196 194 152 187 169 185 185 200 191 190 190 188 186 180 184 189
235 246 266 238 256 244 222 214 196 202 199 208 201 201 209 206 208 202 217 223 221 203 255 260 226 198 230 223 209 186 206 208 198 192 210 186 194 195 207 172 168 179 185 182 188 184 181 179 161
242 234 247 265 243 211 203 217 205 216 178 209 207 202 203 208 202 209 182 215 220 222 205 219 241 275 287 268 247 241 245 254 215 205 210 199 196 188 188 181 183 202 197 194 181 191 192 189 185
226 235 231 245 258 246 232 243 225 215 215 211 208 206 205 201 210 198 205 193 221 216 216 232 204 211 223 228 243 257 276 277 235 210 236 201 214 204 199 214 187 192 194 230 222 206 208 203 216
222 226 231 232 233 248 248 227 234 219 212 210 208 207 202 155 199 209 188 189 212 208 213 212 187 220 217 215 220 219 218 223 226 296 269 249 227 209 193 195 211 197 204 213 217 201 227 205 202
205 211 221 221 222 224 231 250 224 236 219 214 213 210 210 209 207 205 201 191 210 218 191 211 204 208 220 210 227 211 212 205 221 216 216 223 260 247 248 237 229 180 202 199 194 236 220 222 203
Wind_Speed
24 29 32 26 46 48 58 55 28 21 50 42 21 23 30 27 35 41 26 31 30 30 36 28 26 27 28 27 26 19 19 19 19 19 19 18 19 19 20 17 20 16 19 17 12 22 10 10 12
26 23 26 27 37 50 58 40 57 32 32 24 31 32 30 26 34 25 26 32 27 31 26 27 30 30 27 26 29 23 27 22 24 24 20 21 23 18 21 22 20 18 17 14 21 11 14 12 15
19 13 19 28 18 15 17 38 27 49 40 28 25 32 31 33 37 26 28 36 35 43 28 41 29 30 24 28 30 24 30 26 24 24 23 23 26 26 21 26 23 27 21 22 20 13 20 24 23
23 22 25 19 23 16 45 22 21 27 63 53 28 30 32 34 35 37 30 33 31 51 34 32 33 31 33 26 39 26 35 25 26 33 27 29 25 29 25 21 21 33 22 25 15 24 25 13 17
27 30 27 30 20 17 18 23 25 27 35 40 61 38 37 39 36 33 34 38 40 34 35 32 31 30 30 29 28 28 28 29 30 31 30 27 26 31 31 29 23 23 24 34 31 35 28 30 26
32 31 29 32 31 25 28 27 29 42 29 66 50 38 44 49 41 36 39 40 41 42 37 38 53 36 33 46 35 31 40 30 32 40 28 40 41 34 29 25 23 25 36 27 34 35 36 31 32
36 29 27 29 26 30 28 28 27 40 63 35 60 45 55 41 43 42 35 37 56 39 42 43 50 55 50 53 50 32 49 48 31 33 41 30 36 29 30 38 26 41 34 39 35 37 38 42 39
34 36 28 36 30 31 21 31 21 49 35 36 62 36 61 47 43 52 77 36 31 31 35 40 44 48 58 53 37 32 52 48 52 30 50 48 30 33 33 30 43 43 42 43 42 35 34 39 36
29 31 31 37 39 34 42 36 35 39 37 39 31 39 31 68 90 83 84 37 60 51 38 35 48 39 36 50 56 43 40 56 52 49 49 39 44 43 46 45 46 46 46 43 45 43 41 38 42
37 29 35 34 46 44 33 38 41 47 46 50 43 48 28 32 33 33 36 58 61 42 43 42 39 37 38 37 40 37 55 39 54 58 54 33 49 52 51 50 45 43 43 43 44 40 38 35 37
35 36 32 29 35 33 33 41 45 49 36 38 45 58 59 41 67 44 52 36 78 80 46 43 44 42 45 40 40 41 35 38 36 34 34 33 37 56 32 33 46 48 43 43 32 37 32 33 37
41 34 35 45 37 33 42 34 45 42 30 51 26 41 39 32 49 60 26 41 44 45 76 49 48 47 43 41 42 43 42 40 38 59 54 38 44 32 32 35 34 31 31 35 33 35 35 44 44
43 44 40 41 43 40 42 48 37 50 42 32 35 34 24 48 43 29 37 38 40 44 43 59 73 47 50 51 46 45 45 43 41 39 38 38 38 36 34 34 40 44 40 34 35 49 39 34 44
46 44 45 40 40 36 35 41 37 27 12 36 54 58 54 27 52 51 46 39 37 47 39 45 91 48 41 48 51 52 48 44 43 42 49 40 39 37 36 40 38 37 45 51 64 59 58 40 58
49 46 48 45 45 41 38 40 29 20 50 26 45 58 55 52 68 59 25 31 36 39 42 43 45 53 54 55 77 57 80 56 70 43 41 41 40 39 39 37 37 56 42 42 40 41 54 40 38
52 51 53 50 49 55 43 28 26 27 6 23 42 54 65 70 60 56 70 50 42 50 48 48 55 59 61 60 60 42 62 51 55 50 51 46 42 41 42 43 43 42 43 42 43 42 43 61 44
56 60 55 54 51 49 50 37 42 50 40 9 28 57 50 57 83 57 65 66 59 52 54 57 52 59 64 50 60 53 39 39 51 42 49 42 46 46 47 47 47 46 45 44 43 46 46 45 51
59 62 61 61 65 55 61 46 49 28 30 20 15 22 67 65 66 75 69 76 60 75 58 66 65 67 73 46 42 42 42 38 60 48 47 49 44 46 48 50 47 50 48 47 47 49 47 49 70
66 63 60 58 56 60 55 50 50 40 36 36 30 17 42 82 81 82 85 86 69 62 80 77 73 75 59 44 45 49 40 45 50 49 52 52 52 49 74 44 46 49 50 72 72 51 52 53 50
75 73 75 70 59 60 58 60 50 44 38 38 37 35 19 39 74 85 86 94 66 64 84 65 76 55 71 72 78 62 54 56 53 53 50 56 54 44 59 47 63 47 74 49 51 59 78 74 52
79 79 77 73 71 61 64 67 57 58 40 44 42 23 33 21 28 45 65 93 72 61 67 73 74 81 82 52 63 74 61 51 46 58 65 55 49 66 73 49 52 62 58 48 66 58 59 54 59
67 77 78 77 75 69 70 69 66 59 55 46 48 33 37 29 21 32 51 68 71 78 60 84 84 80 67 79 77 71 74 75 83 70 71 72 69 71 50 57 60 52 62 56 47 54 55 58 53
74 71 75 75 64 65 72 69 69 63 57 47 51 42 49 28 29 28 38 65 66 66 70 72 82 78 80 66 61 71 65 81 80 75 74 74 78 78 74 74 73 70 54 63 62 66 57 65 61
66 67 66 72 73 72 68 62 72 68 60 57 54 50 44 48 29 35 33 41 76 77 79 76 79 80 71 77 78 78 72 84 78 82 80 77 79 80 79 79 78 79 76 77 78 80 80 79 81
71 68 68 65 70 70 70 66 69 68 65 60 56 53 55 56 52 36 52 40 44 57 75 83 85 88 71 88 71 79 83 83 90 93 89 73 82 79 81 82 83 82 80 80 82 82 84 85 84
69 63 63 70 65 74 73 70 72 70 69 65 62 59 55 51 46 50 36 38 44 52 45 76 76 75 91 95 92 75 95 99 92 86 96 86 86 86 90 81 79 82 84 83 85 86 86 87 80
65 64 67 62 67 71 71 73 77 76 72 71 67 64 61 59 54 46 57 41 43 46 55 52 50 46 51 62 85 91 94 85 100 98 97 92 91 87 86 82 86 90 88 87 88 90 92 93 93
67 69 71 64 59 66 69 74 78 79 76 74 69 68 66 64 62 60 50 58 44 48 51 51 60 59 59 59 53 53 57 67 89 93 89 92 96 94 93 87 89 91 90 85 88 95 96 96 93
77 74 74 72 64 59 64 70 79 83 82 80 77 73 69 67 67 63 67 61 50 53 53 54 62 57 59 62 62 62 61 60 60 70 77 78 89 88 87 88 97 94 100 91 90 93 85 94 100
82 79 79 74 70 71 67 64 79 84 87 87 82 78 77 76 72 66 62 65 57 56 66 57 59 59 58 61 55 62 62 67 60 64 62 60 82 78 86 90 88 89 100 99 97 80 84 83 97
Wind_Direction
233 233 231 230 239 234 242 241 228 205 237 231 238 244 239 234 228 228 228 232 231 236 234 240 242 239 238 236 233 230 234 239 239 241 242 248 251 256 260 230 261 241 203 268 204 264 219 220 228
229 233 236 231 232 240 243 237 249 228 225 213 228 234 239 244 239 231 233 238 237 236 229 235 238 237 240 236 237 232 231 230 240 242 244 249 260 244 254 264 243 243 258 238 241 221 231 238 237
228 228 228 233 234 216 210 238 224 234 231 230 227 231 230 234 248 236 243 241 244 236 238 240 237 242 229 240 240 230 237 235 236 235 238 242 265 265 253 263 261 266 246 243 265 235 264 269 252
227 236 233 220 235 218 240 216 213 216 251 241 224 227 240 242 238 236 219 240 246 232 249 244 245 241 248 223 242 232 251 233 237 254 246 260 252 265 254 245 247 268 253 266 235 271 252 256 272
227 232 231 241 218 226 229 225 213 228 237 234 247 235 235 234 228 231 233 235 245 225 247 236 237 234 233 228 227 224 231 239 242 245 245 243 244 258 262 263 251 250 258 273 275 276 278 278 267
233 234 232 251 236 234 222 238 223 241 232 245 237 227 239 244 241 238 220 227 235 239 234 244 245 230 240 243 244 235 246 236 245 258 232 263 262 260 257 248 255 259 272 268 275 275 277 276 282
238 243 243 251 222 226 205 204 227 229 243 232 247 235 237 239 245 246 232 231 245 237 237 241 244 237 251 245 245 238 240 256 243 248 260 241 253 240 256 258 249 272 270 270 275 277 278 282 278
240 239 251 250 227 226 255 235 232 240 227 235 255 236 233 231 238 239 241 232 238 241 241 243 244 250 242 248 247 231 238 259 256 236 257 260 245 256 256 253 263 266 274 271 274 278 278 277 278
265 254 254 253 253 220 234 224 228 240 231 239 244 244 242 235 236 236 235 233 242 243 242 238 243 243 227 235 238 237 247 248 258 261 262 255 259 260 264 263 265 265 272 266 270 274 275 274 274
255 251 250 253 238 260 299 235 257 281 270 235 237 252 246 251 249 245 241 237 239 240 245 244 240 233 234 230 227 226 250 230 248 254 260 253 264 264 265 265 264 262 263 263 266 272 272 277 277
240 248 258 261 265 286 291 238 244 285 247 253 240 185 246 248 248 245 243 235 237 240 237 239 246 242 242 242 238 236 249 233 233 236 230 243 259 263 255 258 263 263 265 266 272 276 273 277 279
245 250 254 242 265 286 300 288 297 239 277 239 223 237 238 195 234 238 229 245 243 240 239 242 242 246 241 239 243 246 245 242 239 255 261 244 254 242 247 260 258 262 263 273 273 261 264 281 281
251 274 250 281 254 265 279 315 295 248 242 212 235 238 231 223 243 242 240 243 242 247 244 239 241 241 244 248 245 246 250 248 248 244 244 238 247 244 245 250 261 261 269 267 259 275 267 268 280
254 252 262 268 256 275 272 245 326 320 280 219 166 178 190 224 237 251 245 244 238 248 249 250 233 249 247 248 248 249 247 248 248 250 254 248 248 248 246 258 255 262 271 269 273 280 279 267 281
268 243 248 263 258 255 293 307 288 298 260 213 184 186 210 241 211 210 226 235 240 248 252 252 252 250 247 247 243 249 250 250 249 249 250 253 254 255 255 249 249 272 255 261 262 264 277 263 266
266 261 251 253 254 289 250 287 284 264 292 191 205 190 185 185 227 237 234 230 247 239 226 247 254 251 249 249 247 249 253 254 253 253 256 256 255 255 259 260 256 253 254 258 262 260 260 281 264
238 264 266 258 260 250 277 274 299 236 251 307 206 217 236 231 200 235 244 249 233 240 240 242 236 240 238 249 249 248 248 251 257 257 257 260 260 260 259 259 257 257 257 258 261 266 263 267 269
251 268 272 274 277 248 284 283 291 273 277 256 276 228 224 228 233 233 244 248 235 240 245 250 242 237 232 246 250 253 254 245 258 258 261 261 255 256 260 262 262 265 265 264 264 266 265 267 277
262 260 262 264 269 257 249 272 246 281 257 259 251 280 220 216 224 233 236 240 251 249 246 248 242 245 238 241 245 249 248 253 259 259 261 260 260 262 255 263 265 265 264 272 275 267 268 267 264
267 266 266 266 264 254 259 273 271 277 253 253 255 246 259 222 216 221 226 231 253 232 238 238 243 245 241 240 239 243 252 245 256 256 257 261 264 256 264 261 266 265 267 267 266 269 274 275 265
264 264 264 263 264 258 266 272 243 277 257 254 254 272 252 263 230 213 228 228 234 244 239 246 250 241 254 245 234 245 254 253 255 258 256 259 258 263 267 265 266 267 265 264 270 271 268 269 269
262 262 260 259 261 263 265 268 270 269 273 267 250 249 248 264 255 227 211 221 233 236 248 243 242 244 234 241 257 252 242 242 248 252 255 249 256 263 265 268 268 265 268 269 263 268 269 271 273
258 259 258 257 259 260 261 263 265 267 267 254 239 249 246 246 252 246 240 217 224 232 244 240 242 241 250 234 243 244 236 242 248 252 252 267 267 267 256 259 261 266 263 268 270 270 270 273 273
254 253 251 254 255 257 256 252 264 264 264 265 265 268 260 241 251 242 244 243 223 225 228 238 240 240 239 239 240 242 246 242 249 247 251 257 261 262 257 260 258 257 260 264 264 265 267 267 268
258 257 255 249 242 248 252 252 254 260 261 260 258 257 259 243 243 241 241 240 240 229 233 232 233 237 247 239 247 247 247 250 251 253 253 259 253 259 257 257 259 258 259 261 262 265 269 269 270
255 257 252 251 243 239 248 254 258 258 259 259 257 257 259 249 242 244 241 245 242 241 232 233 238 247 238 241 245 252 248 250 253 256 253 258 255 255 257 270 270 268 262 265 265 267 272 273 275
258 255 254 251 247 248 246 246 252 251 247 254 255 256 257 257 239 249 237 250 249 244 242 238 227 233 238 239 237 242 245 247 250 253 254 257 259 265 265 266 266 261 262 264 270 267 268 271 274
257 255 253 253 248 244 242 238 242 249 249 251 251 253 256 255 259 250 250 243 253 246 244 245 240 237 233 236 241 245 249 252 251 253 251 258 258 260 262 262 266 265 267 262 263 266 268 271 271
254 252 253 251 250 249 242 242 239 241 245 247 247 247 248 245 251 255 246 247 251 246 247 246 245 244 238 237 239 240 242 245 247 254 252 255 254 260 263 264 261 264 263 265 264 267 269 268 269
254 253 252 251 251 247 245 241 239 239 240 244 245 245 246 247 250 251 246 241 252 252 247 246 245 249 250 248 249 246 248 250 255 253 253 258 253 262 259 260 256 260 261 264 266 272 267 272 272